Flag for Austria Weather past 2 weeks in Steyr, Upper Austria, Austria

Now
60 °F

Fog.


Feels Like: 60 °F
Forecast: 50 / 67 °F
Wind: 1 mph from East

Location: Kremsmuenster

Current Time: Oct 1, 2014 at 8:31:59 PM

Latest Report: Oct 1, 2014 at 7:00 PM


Visibility: N/A

Pressure: 30.29 "Hg

Humidity: 96%

Dew point: 58 °F

Location of SteyrLocation

Historic Weather in Steyr — Graph

°F

Steyr temperature yesterday

Maximum temperature yesterday: 69 °F (at 4:00 PM)
Minimum temperature yesterday: 54 °F (at 7:00 AM)
Average temperature yesterday: 60 °F

Past Weeks' High & Low Weather Summary

 TemperatureHumidityPressure
High76 °F (Sep 17, 4:00 PM)100% (Sep 28, 11:00 AM)30.41 "Hg (Sep 28, 11:00 AM)
Low36 °F (Sep 24, 7:00 AM)42% (Sep 17, 4:00 PM)29.88 "Hg (Sep 17, 5:00 PM)
Average57 °F84%30.12 "Hg
* Reported Sep 16 7:00 PM — Oct 1 7:00 PM, Steyr, Weather by CustomWeather, © 2014

Note: Actual official high and low records may vary slightly from our data, if they occured in-between our weather recording intervals... More about our weather records

Advertising

Steyr weather history for previous 24 hours

 ConditionsComfort  
Time TempWeatherWind HumidityBarometerVisibility
7:00 PM
Oct 1
60 °FFog.1 mph96%30.29 "HgN/A
6:00 PM60 °FFog.2 mph94%30.28 "HgN/A
5:00 PM60 °FRain. Low clouds.1 mph94%30.27 "Hg2 mi
4:00 PM61 °FFog.1 mph91%30.27 "HgN/A
3:00 PM61 °FFog.1 mph89%30.28 "HgN/A
2:00 PM61 °FCool.2 mph91%30.28 "HgN/A
1:00 PM60 °FFog.2 mph94%30.29 "HgN/A
12:00 PM60 °FFog.1 mph94%30.29 "HgN/A
11:00 AM58 °FRain. Low clouds.3 mph94%30.30 "Hg2 mi
10:00 AM58 °FFog.3 mph94%30.30 "HgN/A
9:00 AM58 °FFog.3 mph94%30.29 "HgN/A
8:00 AM58 °FLight rain. Low clouds.3 mph93%30.29 "Hg2 mi
7:00 AM58 °FLight rain. Low clouds.3 mph93%30.28 "Hg2 mi
6:00 AM58 °FFog.3 mph93%30.28 "HgN/A
5:00 AM58 °FCool.3 mph91%30.29 "HgN/A
4:00 AM59 °FFog.3 mph91%30.29 "HgN/A
3:00 AM60 °FFog.3 mph92%30.29 "HgN/A
2:00 AM60 °FCool.3 mph94%30.29 "HgN/A
1:00 AM61 °FFog.3 mph91%30.28 "HgN/A
12:00 AM62 °FCool.2 mph90%30.28 "HgN/A
11:00 PM
Sep 30
62 °FCool.2 mph89%30.28 "HgN/A
10:00 PM62 °FCool.2 mph88%30.28 "HgN/A
9:00 PM63 °FMild.3 mph85%30.28 "HgN/A
8:00 PM64 °FFog.2 mph88%30.27 "Hg2 mi
Weather by CustomWeather, © 2014

See weather overviewHow to use our weather pages